Location: *
(44.1392°N, 4.8079°E)
Time: 09:49:51
(UTC+00:00)

Lacrosse 5 rocket - Pass Details

Date: 22 October 2021
Orbit: 459 x 633 km, 57.0° (Epoch: 28 November)

Event Time Altitude Azimuth Distance (km) Brightness Sun altitude
Exits shadow 03:27:37 28° 27° (NNE) 1,094 3.1 -28.7°
Drops below altitude 10° 03:29:57 10° 41° (NE) 1,930 4.7 -28.3°
Sets 03:32:20 0° 47° (NE) 2,861 5.8 -27.9°
